Flag for U.S.A. Weather past 2 weeks in Flagstaff, Arizona, U.S.A.

Now
39 °F

Passing clouds.


Feels Like: 39 °F
Forecast: 40 / 60 °F
Wind: No wind

Location: Flagstaff Pulliam Airport

Current Time: May 6, 2015 at 1:41:02 AM

Latest Report: May 6, 2015 at 12:57 AM


Visibility: 10 mi

Pressure: 29.91 "Hg

Humidity: 96%

Dew point: 38 °F

Location of FlagstaffLocation

Historic Weather in Flagstaff — Graph

°F

Flagstaff temperature yesterday

Maximum temperature yesterday: 53 °F (at 2:57 PM)
Minimum temperature yesterday: 40 °F (at 11:57 PM)
Average temperature yesterday: 46 °F

Past Weeks' High & Low Weather Summary

 TemperatureHumidityPressure
High73 °F (May 1, 1:57 PM)100% (Apr 25, 3:57 PM)30.11 "Hg (Apr 25, 3:57 PM)
Low26 °F (Apr 23, 5:57 AM)13% (Apr 22, 12:57 PM)29.64 "Hg (Apr 26, 1:57 AM)
Average48 °F57%29.88 "Hg
* Reported Apr 20 11:57 PM — May 5 11:57 PM, Flagstaff, Weather by CustomWeather, © 2015

Note: Actual official high and low records may vary slightly from our data, if they occured in-between our weather recording intervals... More about our weather records

Advertising

Flagstaff weather history for previous 24 hours

 ConditionsComfort  
Time TempWeatherWind HumidityBarometerVisibility
11:57 PM
Tue, May 5
40 °FClear.No wind100%29.90 "Hg10 mi
10:57 PM42 °FClear.No wind100%29.90 "Hg10 mi
9:57 PM44 °FClear.7 mph100%29.90 "Hg10 mi
8:57 PM45 °FPassing clouds.7 mph100%29.90 "Hg10 mi
7:57 PM46 °FPartly cloudy.12 mph96%29.86 "Hg10 mi
6:57 PM48 °FPartly sunny.15 mph89%29.83 "Hg10 mi
5:57 PM50 °FScattered clouds.16 mph86%29.82 "Hg10 mi
4:57 PM51 °FBroken clouds.15 mph83%29.82 "Hg10 mi
3:57 PM51 °FScattered clouds.15 mph77%29.82 "Hg10 mi
2:57 PM53 °FBroken clouds.10 mph74%29.80 "Hg10 mi
1:57 PM47 °FLight rain. Fog.9 mph90%29.86 "Hg6 mi
12:57 PM47 °FLight rain. Fog.10 mph93%29.86 "Hg3 mi
11:57 AM49 °FLight rain. Mostly cloudy.8 mph86%29.85 "Hg10 mi
10:57 AM46 °FLight rain. Cloudy.8 mph89%29.88 "Hg8 mi
9:57 AM46 °FMostly cloudy.8 mph89%29.88 "Hg10 mi
8:57 AM45 °FMostly cloudy.8 mph82%29.86 "Hg10 mi
7:57 AM46 °FMostly cloudy.7 mph79%29.83 "Hg10 mi
6:57 AM44 °FPartly sunny.7 mph89%29.83 "Hg10 mi
5:57 AM43 °FMostly cloudy.6 mph93%29.83 "Hg10 mi
4:57 AM42 °FMostly cloudy.8 mph96%29.81 "Hg10 mi
3:57 AM42 °FLow clouds.7 mph96%29.80 "Hg10 mi
2:57 AM42 °FMostly cloudy.6 mph92%29.83 "Hg10 mi
1:57 AM42 °FOvercast.9 mph96%29.80 "Hg10 mi
Weather by CustomWeather, © 2015

See weather overviewHow to use our weather pages